timestamp,surface_pressure_avg,surface_temp_avg,battery_voltage,lat,long
2021-12-27 00:09:00+00:00,261.9014,3.2,12.65,47.84626,-54.09684
2021-12-27 00:19:00+00:00,262.3181,3.25,12.57,47.84626,-54.09684
2021-12-27 00:29:00+00:00,261.2731,3.3,12.57,47.84626,-54.09684
2021-12-27 00:39:00+00:00,260.7898,3.3,12.57,47.84626,-54.09684
2021-12-27 00:49:00+00:00,264.2481,3.4,12.57,47.84626,-54.09684
2021-12-27 00:59:00+00:00,263.8531,3.4,12.57,47.84626,-54.09684
2021-12-27 01:09:00+00:00,261.1981,3.39,12.57,47.84626,-54.09684
2021-12-27 01:19:01+00:00,262.0697,3.2,12.57,47.84626,-54.09684
2021-12-27 01:29:01+00:00,265.0131,3.2,12.57,47.84626,-54.09684
2021-12-27 01:39:01+00:00,265.5764,3.2,12.57,47.84626,-54.09684
2021-12-27 01:49:01+00:00,267.8098,3.2,12.57,47.84626,-54.09684
2021-12-27 01:59:01+00:00,272.6148,3.2,12.57,47.84626,-54.09684
2021-12-27 02:09:01+00:00,276.143,3.2,12.57,47.84626,-54.09684
2021-12-27 02:19:00+00:00,278.718,3.29,12.57,47.84626,-54.09684
2021-12-27 02:29:00+00:00,286.3747,3.3,12.57,47.84626,-54.09684
2021-12-27 02:39:00+00:00,296.7697,3.29,12.57,47.84626,-54.09684
2021-12-27 02:49:00+00:00,302.5847,3.2,12.57,47.84626,-54.09684
2021-12-27 02:59:00+00:00,307.8713,3.28,12.57,47.84626,-54.09684
2021-12-27 03:09:00+00:00,315.4214,3.4,12.57,47.84626,-54.09684
2021-12-27 03:19:00+00:00,324.0379,3.42,12.57,47.84626,-54.09684
2021-12-27 03:29:00+00:00,328.2346,3.4,12.57,47.84626,-54.09684
2021-12-27 03:39:00+00:00,333.3896,3.4,12.57,47.84626,-54.09684
2021-12-27 03:49:00+00:00,338.2797,3.46,12.57,47.84626,-54.09684
2021-12-27 03:59:00+00:00,340.4246,3.5,12.57,47.84626,-54.09684
2021-12-27 04:09:00+00:00,342.3279,3.47,12.57,47.84626,-54.09684
2021-12-27 04:19:00+00:00,347.3697,3.59,12.57,47.84626,-54.09684
2021-12-27 04:29:00+00:00,350.3896,3.59,12.57,47.84626,-54.09684
2021-12-27 04:39:00+00:00,350.3663,3.68,12.57,47.84626,-54.09684
2021-12-27 04:49:00+00:00,351.4263,3.74,12.57,47.84626,-54.09684
2021-12-27 04:59:00+00:00,354.1312,3.8,12.57,47.84626,-54.09684
2021-12-27 05:09:00+00:00,352.9464,3.7,12.57,47.84626,-54.09684
2021-12-27 05:19:00+00:00,350.033,3.7,12.57,47.84626,-54.09684
2021-12-27 05:29:00+00:00,349.9379,3.7,12.57,47.84626,-54.09684
2021-12-27 05:39:00+00:00,351.6747,3.7,12.57,47.84626,-54.09684
2021-12-27 05:49:00+00:00,348.588,3.7,12.57,47.84626,-54.09684
2021-12-27 05:59:00+00:00,348.3863,3.7,12.57,47.84626,-54.09684
2021-12-27 06:09:00+00:00,350.4946,3.7,12.57,47.84626,-54.09684
2021-12-27 06:19:00+00:00,349.0895,3.7,12.57,47.84626,-54.09684
2021-12-27 06:29:00+00:00,343.8112,3.7,12.57,47.84626,-54.09684
2021-12-27 06:39:00+00:00,344.0096,3.8,12.57,47.84626,-54.09684
2021-12-27 06:49:00+00:00,345.2296,3.87,12.57,47.84626,-54.09684
2021-12-27 06:59:00+00:00,338.293,3.8,12.57,47.84626,-54.09684
2021-12-27 07:09:00+00:00,332.6963,3.82,12.57,47.84626,-54.09684
2021-12-27 07:19:00+00:00,329.1663,3.92,12.57,47.84626,-54.09684
2021-12-27 07:29:00+00:00,321.8163,3.9,12.57,47.84626,-54.09684
2021-12-27 07:39:00+00:00,314.8347,3.9,12.57,47.84626,-54.09684
2021-12-27 07:49:00+00:00,312.0797,3.8,12.57,47.84626,-54.09684
2021-12-27 07:59:00+00:00,307.2614,3.8,12.57,47.84626,-54.09684
2021-12-27 08:09:00+00:00,299.7164,3.6,12.57,47.84626,-54.09684
2021-12-27 08:19:00+00:00,294.0748,3.6,12.57,47.84626,-54.09684
2021-12-27 08:29:00+00:00,291.6915,3.6,12.57,47.84626,-54.09684
2021-12-27 08:39:00+00:00,285.3098,3.65,12.57,47.84626,-54.09684
2021-12-27 08:49:00+00:00,275.243,3.66,12.57,47.84626,-54.09684
2021-12-27 08:59:00+00:00,269.5131,3.44,12.57,47.84626,-54.09684
2021-12-27 09:09:00+00:00,267.873,3.49,12.57,47.84626,-54.09684
2021-12-27 09:19:00+00:00,264.5864,3.5,12.57,47.84626,-54.09684
2021-12-27 09:29:00+00:00,258.6964,3.6,12.57,47.84626,-54.09684
2021-12-27 09:39:00+00:00,256.1631,3.65,12.57,47.84626,-54.09684
2021-12-27 09:49:00+00:00,255.0632,3.71,12.57,47.84626,-54.09684
2021-12-27 09:59:00+00:00,253.1181,3.8,12.57,47.84626,-54.09684
2021-12-27 10:09:00+00:00,252.4664,3.9,12.57,47.84626,-54.09684
2021-12-27 10:19:00+00:00,251.5648,3.9,12.57,47.84626,-54.09684
2021-12-27 10:29:00+00:00,250.6781,3.9,12.57,47.84626,-54.09684
2021-12-27 10:39:00+00:00,249.8481,3.9,12.57,47.84626,-54.09684
2021-12-27 10:49:00+00:00,251.023,3.85,12.57,47.84626,-54.09684
2021-12-27 10:59:00+00:00,250.683,3.8,12.57,47.84626,-54.09684
2021-12-27 11:09:00+00:00,250.9847,3.8,12.57,47.84626,-54.09684
2021-12-27 11:19:00+00:00,251.8647,3.8,12.57,47.84626,-54.09684
2021-12-27 11:29:00+00:00,253.5197,3.8,12.57,47.84626,-54.09684
2021-12-27 11:39:00+00:00,254.7198,3.86,12.57,47.84626,-54.09684
2021-12-27 11:49:00+00:00,258.9281,3.9,12.57,47.84626,-54.09684
2021-12-27 11:59:00+00:00,259.873,3.8,12.57,47.84626,-54.09684
2021-12-27 12:09:00+00:00,260.2498,3.8,12.57,47.84626,-54.09684
2021-12-27 12:19:00+00:00,261.6314,3.75,12.57,47.84626,-54.09684
2021-12-27 12:29:00+00:00,266.7014,3.73,12.57,47.84626,-54.09684
2021-12-27 12:39:00+00:00,265.5831,3.76,12.57,47.84626,-54.09684
2021-12-27 12:49:00+00:00,264.6197,3.7,12.57,47.84626,-54.09684
2021-12-27 12:59:00+00:00,267.3514,3.7,12.57,47.84626,-54.09684
2021-12-27 13:09:00+00:00,272.1431,3.7,12.57,47.84626,-54.09684
2021-12-27 13:19:00+00:00,269.7347,3.8,12.81,47.84626,-54.09684
2021-12-27 13:29:00+00:00,270.7515,3.8,12.81,47.84626,-54.09684
2021-12-27 13:39:00+00:00,275.7164,3.81,12.81,47.84626,-54.09684
2021-12-27 13:49:00+00:00,278.348,3.87,12.81,47.84626,-54.09684
2021-12-27 13:59:00+00:00,277.2664,4.08,12.81,47.84626,-54.09684
2021-12-27 14:09:00+00:00,283.6597,4.24,12.81,47.84626,-54.09684
2021-12-27 14:19:01+00:00,289.2064,4.2,13.05,47.84626,-54.09684
2021-12-27 14:29:01+00:00,290.668,4.0,13.05,47.84626,-54.09684
2021-12-27 14:39:01+00:00,294.6747,4.0,13.05,47.84626,-54.09684
2021-12-27 14:49:01+00:00,303.893,4.07,13.05,47.84626,-54.09684
2021-12-27 14:59:01+00:00,307.5363,4.03,13.05,47.84626,-54.09684
2021-12-27 15:09:01+00:00,308.5864,4.1,13.05,47.84626,-54.09684
2021-12-27 15:19:00+00:00,314.833,4.1,13.05,47.84626,-54.09684
2021-12-27 15:29:00+00:00,322.4612,4.2,13.05,47.84626,-54.09684
2021-12-27 15:39:00+00:00,326.3829,4.2,13.05,47.84626,-54.09684
2021-12-27 15:49:00+00:00,329.6179,4.2,13.05,47.84626,-54.09684
2021-12-27 15:59:00+00:00,335.5129,4.2,13.05,47.84626,-54.09684
2021-12-27 16:09:00+00:00,340.1346,4.2,13.05,47.84626,-54.09684
2021-12-27 16:19:01+00:00,341.718,4.2,13.29,47.84626,-54.09684
2021-12-27 16:29:01+00:00,344.4612,4.2,13.29,47.84626,-54.09684
2021-12-27 16:39:01+00:00,345.4813,4.2,13.29,47.84626,-54.09684
2021-12-27 16:49:01+00:00,346.8246,4.2,13.29,47.84626,-54.09684
2021-12-27 16:59:01+00:00,350.8312,4.2,13.29,47.84626,-54.09684
2021-12-27 17:09:01+00:00,354.7312,4.22,13.29,47.84626,-54.09684
2021-12-27 17:19:01+00:00,356.2363,4.27,13.68,47.84626,-54.09684
2021-12-27 17:29:01+00:00,357.8562,4.29,13.68,47.84626,-54.09684
2021-12-27 17:39:01+00:00,360.7163,4.3,13.68,47.84626,-54.09684
2021-12-27 17:49:01+00:00,359.8996,4.29,13.68,47.84626,-54.09684
2021-12-27 17:59:01+00:00,358.2329,4.3,13.68,47.84626,-54.09684
2021-12-27 18:09:01+00:00,360.5396,4.3,13.68,47.84626,-54.09684
2021-12-27 18:19:00+00:00,361.033,4.3,13.37,47.84626,-54.09684
2021-12-27 18:29:00+00:00,358.2546,4.3,13.37,47.84626,-54.09684
2021-12-27 18:39:00+00:00,359.2079,4.3,13.37,47.84626,-54.09684
2021-12-27 18:49:00+00:00,358.9446,4.3,13.37,47.84626,-54.09684
2021-12-27 18:59:00+00:00,354.2063,4.3,13.37,47.84626,-54.09684
2021-12-27 19:09:00+00:00,350.4747,4.3,13.37,47.84626,-54.09684
2021-12-27 19:19:01+00:00,348.798,4.3,13.05,47.84626,-54.09684
2021-12-27 19:29:01+00:00,343.858,4.3,13.05,47.84626,-54.09684
2021-12-27 19:39:01+00:00,337.2563,4.3,13.05,47.84626,-54.09684
2021-12-27 19:49:01+00:00,332.2913,4.3,13.05,47.84626,-54.09684
2021-12-27 19:59:01+00:00,325.6346,4.3,13.05,47.84626,-54.09684
2021-12-27 20:09:01+00:00,318.5396,4.3,13.05,47.84626,-54.09684
2021-12-27 20:19:01+00:00,314.1229,4.3,12.81,47.84626,-54.09684
2021-12-27 20:29:01+00:00,308.9147,4.3,12.81,47.84626,-54.09684
2021-12-27 20:39:01+00:00,300.2397,4.3,12.81,47.84626,-54.09684
2021-12-27 20:49:01+00:00,292.403,4.3,12.81,47.84626,-54.09684
2021-12-27 20:59:01+00:00,288.2947,4.3,12.81,47.84626,-54.09684
2021-12-27 21:09:01+00:00,280.8914,4.3,12.81,47.84626,-54.09684
2021-12-27 21:19:00+00:00,271.6564,4.3,12.73,47.84626,-54.09684
2021-12-27 21:29:00+00:00,267.4481,4.3,12.73,47.84626,-54.09684
2021-12-27 21:39:00+00:00,266.6864,4.3,12.73,47.84626,-54.09684
2021-12-27 21:49:00+00:00,261.0948,4.3,12.73,47.84626,-54.09684
2021-12-27 21:59:00+00:00,258.1548,4.3,12.73,47.84626,-54.09684
2021-12-27 22:09:00+00:00,259.703,4.27,12.73,47.84626,-54.09684
2021-12-27 22:19:00+00:00,256.8947,4.27,12.65,47.84626,-54.09684
2021-12-27 22:29:00+00:00,252.5898,4.3,12.65,47.84626,-54.09684
2021-12-27 22:39:00+00:00,256.4831,4.3,12.65,47.84626,-54.09684
2021-12-27 22:49:00+00:00,257.9147,4.3,12.65,47.84626,-54.09684
2021-12-27 22:59:00+00:00,251.3247,4.3,12.65,47.84626,-54.09684
2021-12-27 23:09:00+00:00,246.3947,4.3,12.65,47.84626,-54.09684
2021-12-27 23:19:01+00:00,247.8597,4.3,12.65,47.84626,-54.09684
2021-12-27 23:29:01+00:00,248.5397,4.3,12.65,47.84626,-54.09684
2021-12-27 23:39:01+00:00,246.3365,4.3,12.65,47.84626,-54.09684
2021-12-27 23:49:01+00:00,246.5131,4.3,12.65,47.84626,-54.09684
2021-12-27 23:59:01+00:00,247.8015,4.3,12.65,47.84626,-54.09684
